EXS6UB EGBB-LIEO

Flight info

Callsign EXS6UB
Flight time 2h 24m
Altitude 39000
Route ADMEX Y321 EMKUK UL612 VEULE DCT KOTAP UM728 KETEX DCT KOTIS DCT KUKOR DCT UTUVA DCT TITVA DCT NOQAS DCT OTROT DCT RETNO DCT KOLON DCT LOKDU M623 MINKA
Aircraft B738/M-SDE2E3FGHIRWXY/LB1

Departure

Time 2026-05-07 16:09
Airport Birmingham Airport (EGBB)

Arrival

Time 2026-05-07 18:34
Airport Olbia Costa Smeralda Airport (LIEO)
Time Latitude Longitude Altitude Speed Heading
2026-05-07 15:54 52.45004 -1.73578 321 ft 0 kts 56°
2026-05-07 16:00 52.44993 -1.73607 322 ft 4 kts 56°
2026-05-07 16:00 52.44980 -1.73635 321 ft 4 kts 44°
2026-05-07 16:00 52.44960 -1.73654 321 ft 4 kts 352°
2026-05-07 16:00 52.44948 -1.73649 322 ft 1 kts 326°
2026-05-07 16:01 52.44967 -1.73669 321 ft 4 kts 326°
2026-05-07 16:01 52.44974 -1.73677 322 ft 0 kts 326°
2026-05-07 16:03 52.44979 -1.73683 322 ft 5 kts 326°
2026-05-07 16:03 52.45038 -1.73745 322 ft 12 kts 336°
2026-05-07 16:04 52.45109 -1.73785 322 ft 12 kts 329°
2026-05-07 16:04 52.45185 -1.73870 321 ft 14 kts 325°
2026-05-07 16:04 52.45264 -1.73959 321 ft 14 kts 326°
2026-05-07 16:04 52.45329 -1.74096 320 ft 19 kts 296°
2026-05-07 16:05 52.45389 -1.74297 321 ft 19 kts 296°
2026-05-07 16:05 52.45443 -1.74476 322 ft 19 kts 299°
2026-05-07 16:05 52.45523 -1.74629 321 ft 18 kts 326°
2026-05-07 16:05 52.45636 -1.74754 315 ft 21 kts 326°
2026-05-07 16:06 52.45767 -1.74900 308 ft 24 kts 325°
2026-05-07 16:06 52.45889 -1.75036 308 ft 23 kts 326°
2026-05-07 16:06 52.46018 -1.75179 307 ft 22 kts 326°
2026-05-07 16:06 52.46143 -1.75319 302 ft 22 kts 325°
2026-05-07 16:07 52.46266 -1.75456 301 ft 21 kts 328°
2026-05-07 16:07 52.46376 -1.75576 301 ft 20 kts 326°
2026-05-07 16:07 52.46491 -1.75705 303 ft 20 kts 326°
2026-05-07 16:07 52.46602 -1.75826 306 ft 19 kts 326°
2026-05-07 16:08 52.46615 -1.75969 306 ft 14 kts 235°
2026-05-07 16:08 52.46553 -1.76084 305 ft 12 kts 185°
2026-05-07 16:08 52.46483 -1.76021 309 ft 12 kts 147°
2026-05-07 16:08 52.46245 -1.75756 307 ft 77 kts 145°
2026-05-07 16:09 52.45625 -1.75066 323 ft 138 kts 146°
2026-05-07 16:09 52.44691 -1.74034 471 ft 177 kts 146°
2026-05-07 16:09 52.43656 -1.72928 1242 ft 180 kts 146°
2026-05-07 16:09 52.42627 -1.71767 2090 ft 183 kts 146°
2026-05-07 16:10 52.41500 -1.70490 2490 ft 208 kts 146°
2026-05-07 16:10 52.40150 -1.69567 3003 ft 214 kts 166°
2026-05-07 16:10 52.38678 -1.69023 3608 ft 218 kts 168°
2026-05-07 16:10 52.37227 -1.68318 4304 ft 220 kts 153°
2026-05-07 16:11 52.35876 -1.67154 4927 ft 225 kts 152°
2026-05-07 16:11 52.34480 -1.65853 5415 ft 242 kts 148°
2026-05-07 16:11 52.32984 -1.64271 5742 ft 265 kts 147°
2026-05-07 16:11 52.31412 -1.62613 6489 ft 271 kts 148°
2026-05-07 16:12 52.29811 -1.60937 7357 ft 274 kts 148°
2026-05-07 16:12 52.28192 -1.59257 8158 ft 278 kts 148°
2026-05-07 16:12 52.26541 -1.57549 8917 ft 282 kts 148°
2026-05-07 16:12 52.24846 -1.55899 9689 ft 285 kts 153°
2026-05-07 16:13 52.23060 -1.54471 10516 ft 285 kts 155°
2026-05-07 16:13 52.21265 -1.53086 11333 ft 286 kts 155°
2026-05-07 16:13 52.19465 -1.51688 12097 ft 289 kts 155°
2026-05-07 16:13 52.17596 -1.50225 12379 ft 309 kts 155°
2026-05-07 16:14 52.15585 -1.48637 12588 ft 331 kts 154°
2026-05-07 16:14 52.13496 -1.46984 13052 ft 342 kts 155°
2026-05-07 16:14 52.11345 -1.45284 13716 ft 346 kts 155°
2026-05-07 16:14 52.09173 -1.43568 14411 ft 349 kts 155°
2026-05-07 16:15 52.06974 -1.41834 15110 ft 352 kts 155°
2026-05-07 16:15 52.04754 -1.40083 15741 ft 356 kts 155°
2026-05-07 16:15 52.02516 -1.38323 16367 ft 360 kts 155°
2026-05-07 16:15 52.00251 -1.36543 16985 ft 363 kts 155°
2026-05-07 16:16 51.97962 -1.34746 17577 ft 367 kts 155°
2026-05-07 16:16 51.95658 -1.32939 18155 ft 371 kts 155°
2026-05-07 16:16 51.93325 -1.31113 18735 ft 374 kts 156°
2026-05-07 16:16 51.90972 -1.29273 19291 ft 377 kts 155°
2026-05-07 16:17 51.88596 -1.27418 19840 ft 380 kts 156°
2026-05-07 16:17 51.86233 -1.25574 20372 ft 383 kts 156°
2026-05-07 16:17 51.83814 -1.23689 20889 ft 386 kts 156°
2026-05-07 16:17 51.81382 -1.21797 21386 ft 390 kts 156°
2026-05-07 16:18 51.78922 -1.19886 21866 ft 393 kts 156°
2026-05-07 16:18 51.76444 -1.17963 22348 ft 396 kts 156°
2026-05-07 16:18 51.73955 -1.16034 22805 ft 399 kts 156°
2026-05-07 16:18 51.71439 -1.14086 23270 ft 401 kts 156°
2026-05-07 16:19 51.68907 -1.12129 23729 ft 404 kts 156°
2026-05-07 16:19 51.66364 -1.10166 24135 ft 407 kts 156°
2026-05-07 16:19 51.63876 -1.08246 24542 ft 410 kts 156°
2026-05-07 16:19 51.61342 -1.06261 24961 ft 411 kts 153°
2026-05-07 16:20 51.58915 -1.03763 25297 ft 417 kts 145°
2026-05-07 16:20 51.56578 -1.00962 25658 ft 420 kts 145°
2026-05-07 16:20 51.54233 -0.98152 26049 ft 421 kts 145°
2026-05-07 16:20 51.51867 -0.95373 26452 ft 422 kts 146°
2026-05-07 16:21 51.49465 -0.92614 26809 ft 424 kts 146°
2026-05-07 16:21 51.47044 -0.89861 27159 ft 426 kts 146°
2026-05-07 16:21 51.44538 -0.87343 27485 ft 427 kts 154°
2026-05-07 16:21 51.41806 -0.85455 27827 ft 427 kts 160°
2026-05-07 16:22 51.39023 -0.83715 28139 ft 429 kts 160°
2026-05-07 16:22 51.36229 -0.81985 28442 ft 432 kts 160°
2026-05-07 16:22 51.33423 -0.80237 28746 ft 434 kts 160°
2026-05-07 16:22 51.30596 -0.78459 29041 ft 436 kts 160°
2026-05-07 16:23 51.27778 -0.76673 29336 ft 438 kts 159°
2026-05-07 16:23 51.24974 -0.74889 29595 ft 439 kts 159°
2026-05-07 16:23 51.22122 -0.73075 29870 ft 441 kts 159°
2026-05-07 16:23 51.19262 -0.71258 30140 ft 442 kts 159°
2026-05-07 16:24 51.16395 -0.69440 30393 ft 444 kts 159°
2026-05-07 16:24 51.13514 -0.67616 30664 ft 445 kts 159°
2026-05-07 16:24 51.10640 -0.65798 30993 ft 445 kts 159°
2026-05-07 16:24 51.07760 -0.63977 31374 ft 443 kts 160°
2026-05-07 16:25 51.05008 -0.62075 31725 ft 442 kts 153°
2026-05-07 16:25 51.02378 -0.59503 31996 ft 444 kts 147°
2026-05-07 16:25 50.99833 -0.56738 32253 ft 444 kts 147°
2026-05-07 16:25 50.97290 -0.53948 32535 ft 444 kts 147°
2026-05-07 16:26 50.94748 -0.51175 32841 ft 443 kts 147°
2026-05-07 16:26 50.92234 -0.48464 33116 ft 442 kts 147°
2026-05-07 16:26 50.89682 -0.45740 33378 ft 442 kts 148°
2026-05-07 16:26 50.87983 -0.43935 33571 ft 441 kts 148°
2026-05-07 16:27 50.84566 -0.40319 33922 ft 441 kts 148°
2026-05-07 16:27 50.82013 -0.37624 34191 ft 440 kts 148°
2026-05-07 16:27 50.79471 -0.34945 34423 ft 440 kts 148°
2026-05-07 16:27 50.76923 -0.32262 34610 ft 441 kts 148°
2026-05-07 16:28 50.74373 -0.29578 34805 ft 441 kts 148°
2026-05-07 16:28 50.71818 -0.26891 35016 ft 441 kts 148°
2026-05-07 16:28 50.69262 -0.24208 35224 ft 441 kts 148°
2026-05-07 16:28 50.66736 -0.21556 35433 ft 441 kts 148°
2026-05-07 16:29 50.64178 -0.18872 35602 ft 442 kts 148°
2026-05-07 16:29 50.61624 -0.16196 35783 ft 442 kts 148°
2026-05-07 16:29 50.59081 -0.13537 35986 ft 442 kts 148°
2026-05-07 16:29 50.56516 -0.10860 36171 ft 442 kts 148°
2026-05-07 16:30 50.53952 -0.08191 36327 ft 443 kts 148°
2026-05-07 16:30 50.51379 -0.05515 36459 ft 443 kts 148°
2026-05-07 16:30 50.48802 -0.02836 36636 ft 443 kts 148°
2026-05-07 16:30 50.46236 -0.00170 36921 ft 440 kts 148°
2026-05-07 16:31 50.43689 0.02473 37051 ft 441 kts 148°
2026-05-07 16:31 50.38594 0.07768 37050 ft 441 kts 148°
2026-05-07 16:32 50.33481 0.13076 37047 ft 438 kts 148°
2026-05-07 16:32 50.28415 0.18332 37049 ft 435 kts 148°
2026-05-07 16:33 50.23372 0.23545 37052 ft 433 kts 148°
2026-05-07 16:33 50.18376 0.28696 37057 ft 433 kts 149°
2026-05-07 16:34 50.13333 0.33876 37058 ft 434 kts 149°
2026-05-07 16:34 50.08282 0.39049 37060 ft 435 kts 149°
2026-05-07 16:35 50.03201 0.44238 37061 ft 438 kts 149°
2026-05-07 16:35 49.98088 0.49445 37060 ft 440 kts 149°
2026-05-07 16:36 49.92952 0.54664 37057 ft 442 kts 149°
2026-05-07 16:36 49.87820 0.59863 37055 ft 444 kts 149°
2026-05-07 16:37 49.82683 0.65187 37059 ft 444 kts 147°
2026-05-07 16:37 49.77656 0.70804 37054 ft 445 kts 146°
2026-05-07 16:38 49.72631 0.76445 37043 ft 446 kts 147°
2026-05-07 16:38 49.67585 0.82043 37034 ft 445 kts 147°
2026-05-07 16:39 49.62580 0.87550 37037 ft 443 kts 147°
2026-05-07 16:39 49.57551 0.93059 37044 ft 442 kts 147°
2026-05-07 16:40 49.52542 0.98531 37046 ft 440 kts 147°
2026-05-07 16:40 49.47543 1.03981 37048 ft 439 kts 147°
2026-05-07 16:41 49.42554 1.09405 37048 ft 438 kts 147°
2026-05-07 16:41 49.37703 1.14668 37050 ft 438 kts 147°
2026-05-07 16:42 49.32723 1.20056 37046 ft 438 kts 147°
2026-05-07 16:42 49.28549 1.24563 37044 ft 437 kts 147°
2026-05-07 16:43 49.23601 1.29894 37047 ft 438 kts 147°
2026-05-07 16:43 49.18602 1.35263 37032 ft 439 kts 147°
2026-05-07 16:44 49.13589 1.40632 37030 ft 440 kts 147°
2026-05-07 16:44 49.08557 1.46014 37026 ft 441 kts 147°
2026-05-07 16:45 49.03522 1.51382 37029 ft 442 kts 147°
2026-05-07 16:45 48.98513 1.56710 37030 ft 443 kts 147°
2026-05-07 16:46 48.93446 1.62085 37016 ft 444 kts 147°
2026-05-07 16:46 48.88373 1.67454 37019 ft 444 kts 147°
2026-05-07 16:47 48.83296 1.72812 37016 ft 444 kts 148°
2026-05-07 16:47 48.78220 1.78157 37021 ft 444 kts 148°
2026-05-07 16:48 48.73173 1.83459 37014 ft 444 kts 148°
2026-05-07 16:48 48.68094 1.88780 37019 ft 443 kts 148°
2026-05-07 16:49 48.63019 1.94083 37018 ft 443 kts 148°
2026-05-07 16:49 48.57948 1.99368 37016 ft 442 kts 148°
2026-05-07 16:50 48.52891 2.04626 37019 ft 442 kts 148°
2026-05-07 16:50 48.47846 2.09859 37020 ft 442 kts 148°
2026-05-07 16:51 48.42774 2.15105 37018 ft 442 kts 148°
2026-05-07 16:51 48.37694 2.20349 37016 ft 442 kts 148°
2026-05-07 16:52 48.32612 2.25578 37020 ft 442 kts 148°
2026-05-07 16:52 48.27340 2.30295 37016 ft 438 kts 160°
2026-05-07 16:53 48.21543 2.32808 37023 ft 433 kts 169°
2026-05-07 16:53 48.15690 2.35044 37019 ft 434 kts 168°
2026-05-07 16:54 48.09872 2.37574 37022 ft 436 kts 165°
2026-05-07 16:54 48.04116 2.40492 37016 ft 437 kts 163°
2026-05-07 16:55 47.98397 2.43414 37020 ft 437 kts 164°
2026-05-07 16:55 47.92624 2.46306 37018 ft 437 kts 164°
2026-05-07 16:56 47.86882 2.49151 37021 ft 437 kts 165°
2026-05-07 16:56 47.78198 2.53432 37021 ft 438 kts 165°
2026-05-07 16:57 47.72407 2.56280 37018 ft 438 kts 165°
2026-05-07 16:57 47.66611 2.59126 37013 ft 438 kts 165°
2026-05-07 16:58 47.60858 2.61945 37007 ft 438 kts 165°
2026-05-07 16:58 47.55061 2.64774 37013 ft 438 kts 165°
2026-05-07 16:59 47.49269 2.67595 37006 ft 437 kts 165°
2026-05-07 16:59 47.43489 2.70404 37007 ft 437 kts 165°
2026-05-07 17:00 47.37733 2.73193 37002 ft 437 kts 165°
2026-05-07 17:00 47.31947 2.75992 36999 ft 437 kts 165°
2026-05-07 17:01 47.26173 2.78778 36997 ft 436 kts 165°
2026-05-07 17:01 47.20404 2.81557 36999 ft 436 kts 165°
2026-05-07 17:02 47.14682 2.84305 37000 ft 435 kts 165°
2026-05-07 17:02 47.09011 2.87019 36998 ft 435 kts 165°
2026-05-07 17:03 47.03257 2.89764 36989 ft 434 kts 165°
2026-05-07 17:03 46.97546 2.92482 36989 ft 434 kts 166°
2026-05-07 17:04 46.91795 2.95212 36993 ft 434 kts 166°
2026-05-07 17:04 46.86038 2.97940 36991 ft 434 kts 166°
2026-05-07 17:05 46.80289 3.00657 36991 ft 434 kts 166°
2026-05-07 17:05 46.74539 3.03368 36990 ft 435 kts 166°
2026-05-07 17:06 46.68780 3.06077 36992 ft 435 kts 166°
2026-05-07 17:06 46.63025 3.08778 36991 ft 435 kts 166°
2026-05-07 17:07 46.57258 3.11477 36992 ft 435 kts 166°
2026-05-07 17:07 46.51551 3.14213 36991 ft 436 kts 164°
2026-05-07 17:08 46.45856 3.17309 36990 ft 436 kts 163°
2026-05-07 17:08 46.40175 3.20443 36990 ft 436 kts 163°
2026-05-07 17:09 46.34735 3.23394 36994 ft 436 kts 163°
2026-05-07 17:09 46.29064 3.26434 36990 ft 436 kts 163°
2026-05-07 17:10 46.23364 3.29476 36993 ft 436 kts 164°
2026-05-07 17:10 46.17661 3.32515 36989 ft 436 kts 164°
2026-05-07 17:11 46.11967 3.35543 36992 ft 436 kts 164°
2026-05-07 17:11 46.06258 3.38573 36992 ft 437 kts 164°
2026-05-07 17:12 46.00554 3.41591 36990 ft 437 kts 164°
2026-05-07 17:12 45.94853 3.44601 36992 ft 436 kts 164°
2026-05-07 17:13 45.89153 3.47606 36986 ft 436 kts 164°
2026-05-07 17:13 45.83692 3.51349 36982 ft 444 kts 151°
2026-05-07 17:14 45.78547 3.56297 36979 ft 445 kts 150°
2026-05-07 17:14 45.73412 3.61246 36975 ft 444 kts 150°
2026-05-07 17:15 45.68269 3.66113 36968 ft 444 kts 151°
2026-05-07 17:15 45.63137 3.70924 36973 ft 443 kts 151°
2026-05-07 17:16 45.58217 3.75525 36985 ft 443 kts 151°
2026-05-07 17:16 45.53063 3.80332 36984 ft 443 kts 151°
2026-05-07 17:17 45.47906 3.85138 36993 ft 443 kts 151°
2026-05-07 17:17 45.42786 3.89893 36989 ft 443 kts 151°
2026-05-07 17:18 45.37657 3.94772 36987 ft 445 kts 145°
2026-05-07 17:18 45.33422 4.01227 36993 ft 454 kts 129°
2026-05-07 17:19 45.29797 4.08549 36991 ft 455 kts 129°
2026-05-07 17:19 45.26180 4.15759 36993 ft 455 kts 130°
2026-05-07 17:20 45.22486 4.22964 36990 ft 455 kts 130°
2026-05-07 17:20 45.18801 4.30163 36993 ft 455 kts 130°
2026-05-07 17:21 45.15079 4.37443 36987 ft 456 kts 130°
2026-05-07 17:21 45.11360 4.44683 36983 ft 456 kts 131°
2026-05-07 17:22 45.07452 4.51400 36974 ft 454 kts 136°
2026-05-07 17:22 45.03499 4.57705 36967 ft 453 kts 136°
2026-05-07 17:23 44.99941 4.63388 36956 ft 453 kts 136°
2026-05-07 17:23 44.96501 4.68935 36948 ft 453 kts 136°
2026-05-07 17:24 44.93250 4.74205 36947 ft 453 kts 136°
2026-05-07 17:24 44.89875 4.79677 36952 ft 453 kts 136°
2026-05-07 17:25 44.87069 4.84217 36949 ft 452 kts 136°
2026-05-07 17:25 44.83329 4.90257 36943 ft 452 kts 136°
2026-05-07 17:26 44.79662 4.96166 36946 ft 452 kts 136°
2026-05-07 17:26 44.75704 5.02527 36944 ft 452 kts 136°
2026-05-07 17:27 44.71855 5.08697 36943 ft 452 kts 136°
2026-05-07 17:27 44.67933 5.14974 36943 ft 452 kts 136°
2026-05-07 17:28 44.64018 5.21224 36952 ft 452 kts 136°
2026-05-07 17:28 44.60044 5.27554 36944 ft 452 kts 136°
2026-05-07 17:29 44.56165 5.33719 36949 ft 452 kts 136°
2026-05-07 17:29 44.52092 5.40176 36944 ft 452 kts 136°
2026-05-07 17:30 44.47941 5.46747 36961 ft 450 kts 137°
2026-05-07 17:30 44.43805 5.53271 36947 ft 451 kts 137°
2026-05-07 17:31 44.39641 5.59828 36947 ft 450 kts 137°
2026-05-07 17:31 44.35717 5.66723 36947 ft 456 kts 129°
2026-05-07 17:32 44.32199 5.74109 36948 ft 457 kts 128°
2026-05-07 17:32 44.28695 5.81516 36952 ft 456 kts 129°
2026-05-07 17:33 44.25150 5.88862 36951 ft 456 kts 129°
2026-05-07 17:33 44.21599 5.96131 36958 ft 456 kts 129°
2026-05-07 17:34 44.18009 6.03447 36956 ft 457 kts 129°
2026-05-07 17:34 44.14414 6.10761 36942 ft 457 kts 129°
2026-05-07 17:35 44.10858 6.17976 36952 ft 457 kts 129°
2026-05-07 17:35 44.07210 6.25367 36952 ft 458 kts 129°
2026-05-07 17:36 44.03613 6.32631 36959 ft 457 kts 130°
2026-05-07 17:36 44.00000 6.39909 36955 ft 457 kts 130°
2026-05-07 17:37 43.96383 6.47177 36951 ft 458 kts 130°
2026-05-07 17:37 43.92783 6.54395 36952 ft 457 kts 130°
2026-05-07 17:38 43.89164 6.61632 36951 ft 457 kts 130°
2026-05-07 17:38 43.85529 6.68881 36956 ft 456 kts 130°
2026-05-07 17:39 43.81904 6.76092 36965 ft 456 kts 130°
2026-05-07 17:39 43.78263 6.83312 36968 ft 457 kts 131°
2026-05-07 17:40 43.74631 6.90470 36960 ft 456 kts 134°
2026-05-07 17:40 43.70119 6.96349 36969 ft 439 kts 153°
2026-05-07 17:41 43.64802 7.00179 36972 ft 429 kts 162°
2026-05-07 17:41 43.59930 7.03219 36969 ft 431 kts 162°
2026-05-07 17:42 43.54509 7.06612 36957 ft 432 kts 162°
2026-05-07 17:42 43.49072 7.10048 36963 ft 433 kts 162°
2026-05-07 17:43 43.43591 7.13522 36969 ft 433 kts 162°
2026-05-07 17:43 43.38103 7.16996 36962 ft 433 kts 162°
2026-05-07 17:44 43.32653 7.20439 36964 ft 433 kts 162°
2026-05-07 17:44 43.27180 7.23889 36967 ft 433 kts 162°
2026-05-07 17:45 43.21709 7.27332 36973 ft 432 kts 162°
2026-05-07 17:45 43.16327 7.30712 36971 ft 432 kts 163°
2026-05-07 17:46 43.10874 7.34128 36977 ft 431 kts 163°
2026-05-07 17:46 43.05424 7.37536 36979 ft 430 kts 163°
2026-05-07 17:47 42.99978 7.40935 36982 ft 429 kts 163°
2026-05-07 17:47 42.94577 7.44300 36982 ft 429 kts 163°
2026-05-07 17:48 42.89132 7.47683 36982 ft 428 kts 163°
2026-05-07 17:48 42.83709 7.51044 36982 ft 428 kts 163°
2026-05-07 17:49 42.78334 7.54365 36991 ft 427 kts 164°
2026-05-07 17:49 42.72924 7.57705 36989 ft 427 kts 164°
2026-05-07 17:50 42.67506 7.61047 36992 ft 427 kts 164°
2026-05-07 17:50 42.62093 7.64381 36990 ft 427 kts 164°
2026-05-07 17:51 42.56715 7.67686 36992 ft 427 kts 164°
2026-05-07 17:51 42.51304 7.71005 36989 ft 426 kts 164°
2026-05-07 17:52 42.45892 7.74318 36976 ft 426 kts 165°
2026-05-07 17:52 42.40487 7.77621 36973 ft 425 kts 165°
2026-05-07 17:53 42.35116 7.80896 36972 ft 425 kts 165°
2026-05-07 17:53 42.29736 7.84171 36969 ft 424 kts 165°
2026-05-07 17:54 42.24362 7.87436 36973 ft 424 kts 165°
2026-05-07 17:54 42.19024 7.90673 36963 ft 424 kts 165°
2026-05-07 17:55 42.13663 7.93917 36963 ft 423 kts 165°
2026-05-07 17:55 42.08310 7.97151 36964 ft 423 kts 165°
2026-05-07 17:56 42.02958 8.00378 36962 ft 423 kts 165°
2026-05-07 17:56 41.97579 8.03276 36658 ft 411 kts 175°
2026-05-07 17:57 41.94866 8.03914 36358 ft 393 kts 183°
2026-05-07 17:57 41.93092 8.04151 36115 ft 390 kts 183°
2026-05-07 17:57 41.89547 8.04618 35604 ft 386 kts 183°
2026-05-07 17:57 41.86896 8.04998 35217 ft 383 kts 182°
2026-05-07 17:58 41.84294 8.05388 34842 ft 380 kts 182°
2026-05-07 17:58 41.81707 8.05788 34524 ft 375 kts 182°
2026-05-07 17:58 41.79135 8.06190 34153 ft 372 kts 182°
2026-05-07 17:58 41.76585 8.06589 33796 ft 369 kts 183°
2026-05-07 17:59 41.74065 8.06981 33427 ft 366 kts 183°
2026-05-07 17:59 41.71560 8.07367 33064 ft 363 kts 183°
2026-05-07 17:59 41.69084 8.07746 32700 ft 360 kts 183°
2026-05-07 17:59 41.66626 8.08124 32343 ft 357 kts 183°
2026-05-07 18:00 41.64184 8.08501 31993 ft 355 kts 183°
2026-05-07 18:00 41.61744 8.08878 31635 ft 353 kts 183°
2026-05-07 18:00 41.59326 8.09251 31256 ft 352 kts 183°
2026-05-07 18:00 41.56901 8.09629 30888 ft 350 kts 182°
2026-05-07 18:01 41.54489 8.10007 30537 ft 348 kts 182°
2026-05-07 18:01 41.52101 8.10380 30186 ft 346 kts 182°
2026-05-07 18:01 41.49714 8.10752 29836 ft 344 kts 182°
2026-05-07 18:01 41.47361 8.11118 29501 ft 342 kts 182°
2026-05-07 18:02 41.42687 8.11845 28805 ft 338 kts 182°
2026-05-07 18:02 41.40374 8.12204 28460 ft 337 kts 182°
2026-05-07 18:02 41.38045 8.12576 28128 ft 340 kts 182°
2026-05-07 18:03 41.35672 8.12956 27799 ft 351 kts 181°
2026-05-07 18:03 41.33261 8.13344 27437 ft 355 kts 181°
2026-05-07 18:03 41.30812 8.13745 27058 ft 354 kts 181°
2026-05-07 18:03 41.28394 8.14140 26693 ft 351 kts 181°
2026-05-07 18:04 41.25993 8.14529 26342 ft 349 kts 181°
2026-05-07 18:04 41.23588 8.14917 25975 ft 346 kts 181°
2026-05-07 18:04 41.21200 8.15302 25616 ft 344 kts 181°
2026-05-07 18:04 41.18828 8.15706 25255 ft 344 kts 176°
2026-05-07 18:05 41.16549 8.16875 24877 ft 361 kts 154°
2026-05-07 18:05 41.14662 8.19110 24630 ft 370 kts 133°
2026-05-07 18:05 41.13218 8.21894 24340 ft 371 kts 129°
2026-05-07 18:05 41.11826 8.24781 23985 ft 370 kts 128°
2026-05-07 18:06 41.10458 8.27662 23640 ft 368 kts 128°
2026-05-07 18:06 41.09092 8.30527 23301 ft 366 kts 128°
2026-05-07 18:06 41.07725 8.33365 22950 ft 363 kts 128°
2026-05-07 18:06 41.06361 8.36175 22623 ft 361 kts 128°
2026-05-07 18:07 41.05001 8.38960 22288 ft 359 kts 128°
2026-05-07 18:07 41.03644 8.41728 21947 ft 357 kts 128°
2026-05-07 18:07 41.02746 8.43558 21722 ft 356 kts 128°
2026-05-07 18:07 41.01398 8.46297 21389 ft 354 kts 128°
2026-05-07 18:08 41.00058 8.49014 21054 ft 352 kts 128°
2026-05-07 18:08 40.98729 8.51708 20724 ft 349 kts 127°
2026-05-07 18:08 40.97402 8.54395 20379 ft 347 kts 127°
2026-05-07 18:08 40.96085 8.57059 20064 ft 345 kts 127°
2026-05-07 18:09 40.94771 8.59712 19733 ft 343 kts 127°
2026-05-07 18:09 40.93466 8.62347 19413 ft 341 kts 127°
2026-05-07 18:09 40.92170 8.64960 19094 ft 339 kts 127°
2026-05-07 18:09 40.90880 8.67560 18776 ft 336 kts 127°
2026-05-07 18:10 40.89603 8.70132 18464 ft 334 kts 127°
2026-05-07 18:10 40.88330 8.72691 18148 ft 331 kts 125°
2026-05-07 18:10 40.87070 8.75226 17838 ft 328 kts 125°
2026-05-07 18:10 40.85839 8.77701 17526 ft 325 kts 125°
2026-05-07 18:11 40.84601 8.80188 17218 ft 323 kts 125°
2026-05-07 18:11 40.83520 8.82782 16886 ft 324 kts 108°
2026-05-07 18:11 40.83297 8.85724 16626 ft 323 kts 83°
2026-05-07 18:11 40.83954 8.88516 16417 ft 318 kts 62°
2026-05-07 18:12 40.85225 8.90780 16131 ft 316 kts 49°
2026-05-07 18:12 40.86682 8.92940 15819 ft 314 kts 48°
2026-05-07 18:12 40.88133 8.95092 15515 ft 313 kts 49°
2026-05-07 18:12 40.89545 8.97274 15193 ft 312 kts 53°
2026-05-07 18:13 40.90815 8.99599 14897 ft 310 kts 56°
2026-05-07 18:13 40.92028 9.01950 14588 ft 308 kts 56°
2026-05-07 18:13 40.93005 9.03849 14335 ft 307 kts 56°
2026-05-07 18:13 40.94193 9.06141 14043 ft 305 kts 56°
2026-05-07 18:14 40.95407 9.08457 13735 ft 304 kts 56°
2026-05-07 18:14 40.96616 9.10752 13426 ft 303 kts 56°
2026-05-07 18:14 40.97821 9.13034 13126 ft 301 kts 56°
2026-05-07 18:14 40.99017 9.15301 12878 ft 298 kts 56°
2026-05-07 18:15 41.00201 9.17548 12694 ft 298 kts 56°
2026-05-07 18:15 41.01386 9.19799 12505 ft 298 kts 56°
2026-05-07 18:15 41.02324 9.21579 12352 ft 298 kts 56°
2026-05-07 18:15 41.03440 9.23701 12170 ft 298 kts 56°
2026-05-07 18:16 41.04615 9.25935 11981 ft 300 kts 56°
2026-05-07 18:16 41.05765 9.28237 11788 ft 297 kts 65°
2026-05-07 18:16 41.06222 9.30832 11586 ft 287 kts 93°
2026-05-07 18:16 41.05784 9.33348 11418 ft 277 kts 117°
2026-05-07 18:17 41.04732 9.35424 11243 ft 269 kts 136°
2026-05-07 18:17 41.03276 9.36932 11089 ft 263 kts 146°
2026-05-07 18:17 41.01764 9.38306 10924 ft 264 kts 146°
2026-05-07 18:17 41.00097 9.39297 10730 ft 265 kts 172°
2026-05-07 18:18 40.98296 9.39107 10595 ft 266 kts 198°
2026-05-07 18:18 40.96715 9.37840 10438 ft 270 kts 223°
2026-05-07 18:18 40.95549 9.35901 10263 ft 269 kts 234°
2026-05-07 18:18 40.94491 9.33857 10097 ft 271 kts 234°
2026-05-07 18:19 40.93424 9.31791 9915 ft 274 kts 234°
2026-05-07 18:19 40.92349 9.29701 9748 ft 275 kts 234°
2026-05-07 18:19 40.91258 9.27607 9564 ft 277 kts 234°
2026-05-07 18:19 40.90156 9.25509 9390 ft 278 kts 234°
2026-05-07 18:20 40.89057 9.23424 9197 ft 275 kts 234°
2026-05-07 18:20 40.87974 9.21362 9028 ft 271 kts 234°
2026-05-07 18:20 40.86901 9.19318 8846 ft 269 kts 234°
2026-05-07 18:20 40.85830 9.17286 8688 ft 268 kts 234°
2026-05-07 18:21 40.84789 9.15310 8508 ft 263 kts 234°
2026-05-07 18:21 40.83834 9.13495 8362 ft 258 kts 234°
2026-05-07 18:21 40.83493 9.12850 8302 ft 257 kts 234°
2026-05-07 18:22 40.82464 9.10912 8139 ft 254 kts 233°
2026-05-07 18:22 40.81791 9.09646 8038 ft 254 kts 233°
2026-05-07 18:22 40.80435 9.07097 7820 ft 253 kts 234°
2026-05-07 18:22 40.79428 9.05204 7665 ft 251 kts 234°
2026-05-07 18:23 40.78429 9.03319 7504 ft 251 kts 234°
2026-05-07 18:23 40.77427 9.01430 7360 ft 251 kts 234°
2026-05-07 18:23 40.76423 8.99555 7192 ft 250 kts 231°
2026-05-07 18:23 40.75102 8.98111 6994 ft 248 kts 198°
2026-05-07 18:24 40.73442 8.97882 6873 ft 245 kts 168°
2026-05-07 18:24 40.71863 8.98684 6719 ft 244 kts 147°
2026-05-07 18:24 40.70460 8.99942 6582 ft 244 kts 143°
2026-05-07 18:24 40.69087 9.01253 6410 ft 242 kts 142°
2026-05-07 18:25 40.67726 9.02549 6251 ft 240 kts 141°
2026-05-07 18:25 40.66692 9.04184 6082 ft 231 kts 107°
2026-05-07 18:25 40.66679 9.06211 5977 ft 223 kts 69°
2026-05-07 18:25 40.67383 9.08017 5870 ft 223 kts 61°
2026-05-07 18:26 40.68180 9.09802 5711 ft 227 kts 58°
2026-05-07 18:26 40.69027 9.11556 5559 ft 226 kts 57°
2026-05-07 18:26 40.69896 9.13278 5404 ft 225 kts 56°
2026-05-07 18:26 40.70759 9.14961 5269 ft 223 kts 56°
2026-05-07 18:27 40.71624 9.16636 5130 ft 219 kts 56°
2026-05-07 18:27 40.72463 9.18257 5007 ft 208 kts 56°
2026-05-07 18:27 40.73257 9.19788 4869 ft 197 kts 56°
2026-05-07 18:27 40.74034 9.21289 4743 ft 199 kts 56°
2026-05-07 18:28 40.74810 9.22788 4640 ft 194 kts 56°
2026-05-07 18:28 40.75568 9.24249 4562 ft 194 kts 56°
2026-05-07 18:28 40.76326 9.25713 4438 ft 194 kts 56°
2026-05-07 18:28 40.77096 9.27199 4246 ft 195 kts 55°
2026-05-07 18:29 40.77858 9.28665 4147 ft 194 kts 55°
2026-05-07 18:29 40.78624 9.30143 4046 ft 195 kts 56°
2026-05-07 18:29 40.79389 9.31618 3951 ft 195 kts 56°
2026-05-07 18:29 40.80158 9.33098 3714 ft 194 kts 56°
2026-05-07 18:30 40.80903 9.34532 3422 ft 184 kts 55°
2026-05-07 18:30 40.81612 9.35898 3131 ft 176 kts 55°
2026-05-07 18:30 40.82290 9.37204 2894 ft 167 kts 55°
2026-05-07 18:30 40.82945 9.38463 2614 ft 164 kts 55°
2026-05-07 18:31 40.83562 9.39651 2360 ft 153 kts 55°
2026-05-07 18:31 40.84148 9.40777 2173 ft 143 kts 55°
2026-05-07 18:31 40.84720 9.41877 1924 ft 144 kts 55°
2026-05-07 18:31 40.85270 9.42937 1696 ft 141 kts 55°
2026-05-07 18:32 40.85821 9.43995 1483 ft 140 kts 55°
2026-05-07 18:32 40.86369 9.45051 1274 ft 140 kts 55°
2026-05-07 18:32 40.86922 9.46112 1057 ft 141 kts 55°
2026-05-07 18:32 40.87479 9.47170 846 ft 141 kts 55°
2026-05-07 18:33 40.88029 9.48243 628 ft 140 kts 56°
2026-05-07 18:33 40.88576 9.49294 412 ft 137 kts 55°
2026-05-07 18:33 40.89119 9.50329 196 ft 137 kts 54°
2026-05-07 18:33 40.89652 9.51354 39 ft 127 kts 54°
2026-05-07 18:34 40.90094 9.52195 33 ft 91 kts 56°
2026-05-07 18:34 40.90370 9.52724 33 ft 46 kts 56°
2026-05-07 18:34 40.90502 9.52923 31 ft 22 kts 14°
2026-05-07 18:34 40.90575 9.52804 32 ft 20 kts 256°
2026-05-07 18:35 40.90542 9.52664 32 ft 14 kts 239°
2026-05-07 18:35 40.90488 9.52560 33 ft 14 kts 236°
2026-05-07 18:35 40.90435 9.52458 33 ft 13 kts 236°
2026-05-07 18:35 40.90384 9.52359 32 ft 13 kts 235°
2026-05-07 18:36 40.90334 9.52264 32 ft 12 kts 235°
2026-05-07 18:36 40.90285 9.52171 32 ft 12 kts 235°
2026-05-07 18:36 40.90232 9.52072 33 ft 14 kts 235°
2026-05-07 18:36 40.90178 9.51966 33 ft 14 kts 245°
2026-05-07 18:37 40.90186 9.51845 33 ft 13 kts 285°
2026-05-07 18:37 40.90220 9.51758 33 ft 7 kts 259°
2026-05-07 18:37 40.90192 9.51704 33 ft 7 kts 235°
2026-05-07 18:37 40.90177 9.51668 33 ft 3 kts 265°
2026-05-07 18:38 40.90190 9.51649 33 ft 3 kts 324°
2026-05-07 18:38 40.90207 9.51633 33 ft 3 kts 325°
2026-05-07 18:38 40.90223 9.51619 33 ft 0 kts 325°